Fort Sill, OK

10:16 PM CDT on April 26, 2018 (GMT -0500)
Post Army Air Field

Weather History for KFSI - November, 2013

Change the Weather History Date:

Thursday, November 14, 2013

  Actual Average Record
Temperature  
Mean Temperature 42 °F -  
Max Temperature 54 °F 63 °F 81 °F (1956)
Min Temperature 29 °F 38 °F 19 °F (1959)
Degree Days  
Heating Degree Days 24    
Moisture  
Dew Point 31 °F    
Average Humidity 64    
Maximum Humidity 82    
Minimum Humidity 37    
Precipitation  
Precipitation 0.02 in - - ()
Sea Level Pressure  
Sea Level Pressure 30.06 in    
Wind  
Wind Speed 9 mph (SSE)    
Max Wind Speed 22 mph    
Max Gust Speed 29 mph    
Visibility 10 miles    
Events Rain    
Averages and records for this station are not official NWS values.
T = Trace of Precipitation, MM = Missing Value Source: NWS Daily Summary

Daily Weather History Graph

Daily Weather History Graph

Search for Another Location

Airport or City:

Astronomy

Nov. 14, 2013 Rise Set
Actual Time 7:06 AM CST 5:29 PM CST
Civil Twilight 6:39 AM CST 5:55 PM CST
Nautical Twilight 6:09 AM CST 6:26 PM CST
Astronomical Twilight 5:39 AM CST 6:56 PM CST
Moon 3:45 PM CST (11/14) 4:09 AM CST (11/14)
Length of Visible Light 11h 15m
Length of Day
10h 22m
Waxing Gibbous, 92% of the Moon is Illuminated
Nov 14
Waxing Gibbous
Nov 17
Full
Nov 25
Last Quarter
Dec 2
New
Dec 9
First Quarter

Hourly Weather History & Observations

Time (CST) Temp. Windchill Dew Point Humidity Pressure Visibility Wind Dir Wind Speed Gust Speed Precip Events Conditions
12:58 AM 32.5 °F 25.5 °F 23.9 °F 70% 30.29 in 10.0 mi South 8.1 mph - N/A   Clear
1:58 AM 30.6 °F 23.1 °F 23.4 °F 75% 30.27 in 10.0 mi South 8.1 mph - N/A   Clear
2:58 AM 30.9 °F 22.8 °F 23.9 °F 75% 30.25 in 10.0 mi South 9.2 mph - N/A   Clear
3:58 AM 31.5 °F 23.5 °F 24.1 °F 74% 30.23 in 10.0 mi South 9.2 mph - N/A   Clear
4:58 AM 30.7 °F 24.9 °F 24.3 °F 77% 30.22 in 10.0 mi South 5.8 mph - N/A   Clear
5:58 AM 29.5 °F 23.4 °F 24.1 °F 80% 30.22 in 10.0 mi SSW 5.8 mph - N/A   Clear
6:58 AM 29.7 °F 22.8 °F 24.8 °F 82% 30.20 in 10.0 mi South 6.9 mph - N/A   Clear
7:58 AM 31.5 °F 24.9 °F 25.9 °F 80% 30.19 in 10.0 mi SSE 6.9 mph - N/A   Partly Cloudy
8:56 AM 37.4 °F 29.3 °F 28.4 °F 70% 30.15 in 10.0 mi South 12.7 mph - N/A   Clear
9:56 AM 42.8 °F 36.6 °F 26.6 °F 53% 30.15 in 10.0 mi South 11.5 mph - N/A   Clear
10:56 AM 46.4 °F 40.1 °F 28.4 °F 50% 30.13 in 10.0 mi South 15.0 mph - N/A   Partly Cloudy
10:58 AM 46.9 °F - 27.9 °F 48% 30.14 in 10.0 mi South 15.0 mph - N/A   Partly Cloudy
11:58 AM 51.6 °F - 28.2 °F 41% 30.09 in 10.0 mi South 15.0 mph - N/A   Scattered Clouds
12:58 PM 52.7 °F - 28.0 °F 39% 30.05 in 10.0 mi South 19.6 mph 25.3 mph N/A   Mostly Cloudy
1:58 PM 54.1 °F - 28.6 °F 37% 30.01 in 10.0 mi South 21.9 mph 28.8 mph N/A   Scattered Clouds
2:58 PM 52.0 °F - 27.5 °F 39% 30.00 in 10.0 mi South 11.5 mph - N/A   Mostly Cloudy
3:22 PM 51.8 °F - 32.0 °F 47% 29.99 in 10.0 mi South 18.4 mph 21.9 mph N/A Rain Light Rain
3:47 PM 48.2 °F - 35.6 °F 62% 29.99 in 10.0 mi South 12.7 mph - N/A   Mostly Cloudy
3:58 PM 48.6 °F - 34.7 °F 59% 30.01 in 10.0 mi SSE 13.8 mph 20.7 mph 0.00 in   Overcast
4:58 PM 47.7 °F - 36.1 °F 64% 29.99 in 10.0 mi SSE 11.5 mph - N/A   Mostly Cloudy
5:58 PM 48.4 °F - 33.8 °F 57% 29.99 in 10.0 mi SSE 9.2 mph - N/A   Overcast
6:58 PM 49.3 °F - 33.1 °F 54% 29.99 in 10.0 mi SSE 10.4 mph - N/A   Overcast
7:11 PM 50.0 °F - 32.0 °F 50% 29.97 in 10.0 mi SSE 10.4 mph - N/A   Light Drizzle
7:53 PM 46.4 °F 43.5 °F 37.4 °F 71% 29.97 in 10.0 mi SE 5.8 mph - N/A   Overcast
7:58 PM 46.4 °F 43.5 °F 37.4 °F 71% 29.99 in 10.0 mi ESE 5.8 mph - 0.00 in   Overcast
8:58 PM 46.2 °F 44.1 °F 37.6 °F 72% 29.97 in 10.0 mi SE 4.6 mph - N/A   Overcast
9:05 PM 46.4 °F 44.3 °F 37.4 °F 71% 29.97 in 10.0 mi SE 4.6 mph - N/A   Light Drizzle
9:13 PM 46.4 °F 44.3 °F 37.4 °F 71% 29.97 in 10.0 mi SE 4.6 mph - N/A   Overcast
9:27 PM 46.4 °F 44.3 °F 37.4 °F 71% 29.97 in 10.0 mi ESE 4.6 mph - N/A Rain Light Rain
9:44 PM 46.4 °F 44.3 °F 37.4 °F 71% 29.97 in 6.0 mi ESE 4.6 mph - N/A Rain Light Rain
9:58 PM 45.5 °F 43.2 °F 38.8 °F 78% 29.97 in 10.0 mi ESE 4.6 mph - 0.02 in Rain Light Rain
9:59 PM 46.4 °F 44.3 °F 39.2 °F 76% 29.97 in 10.0 mi ESE 4.6 mph - N/A   Overcast
10:58 PM 45.1 °F - 37.2 °F 74% 29.96 in 10.0 mi ESE 2.3 mph - 0.00 in   Overcast
11:58 PM 45.0 °F 42.6 °F 36.0 °F 71% 29.93 in 10.0 mi SE 4.6 mph - N/A   Mostly Cloudy